Orbital Elements at Epoch 2459200.5 (2020-Dec-17.0) TDB
Reference: JPL 29 (heliocentric ecliptic J2000)
Element | Value | Uncertainty (1-sigma) | Units |
e | .231404542474175 | 3.3872e-08 | |
a | 2.35426023051353 | 1.1765e-08 | au |
q | 1.8094737190064 | 8.1152e-08 | au |
i | 8.494768453014087 | 3.6866e-06 | deg |
node | 263.8233752229774 | 3.2472e-05 | deg |
peri | 28.15333125792887 | 3.3898e-05 | deg |
M | 32.59392144812883 | 1.0987e-05 | deg |
tp | 2459081.042274848969 (2020-Aug-19.54227485) | 3.9969e-05 | TDB |
period | 1319.411078621226 3.61 | 9.8904e-06 2.708e-08 | d yr |
n | .2728490050092631 | 2.0453e-09 | deg/d |
Q | 2.899046742020659 | 1.4488e-08 | au |
|
| | Orbit Determination Parameters
Additional Information
|